owner,sensor,date,latitude,longitude,air_temperature,qcFlag 
COMPS,ioos:station:USF.COMPS:TAR:1,2011-01-01T00:00:00Z,28.1560,-82.7580,18.8,1111122 
COMPS,ioos:station:USF.COMPS:TAR:1,2011-01-01T00:06:00Z,28.1560,-82.7580,18.43,1111122 
COMPS,ioos:station:USF.COMPS:TAR:1,2011-01-01T00:12:00Z,28.1560,-82.7580,18.21,1111122 
COMPS,ioos:station:USF.COMPS:TAR:1,2011-01-01T00:18:00Z,28.1560,-82.7580,17.96,1111122 
COMPS,ioos:station:USF.COMPS:TAR:1,2011-01-01T00:24:00Z,28.1560,-82.7580,17.83,1111122 
COMPS,ioos:station:USF.COMPS:TAR:1,2011-01-01T00:30:00Z,28.1560,-82.7580,17.73,1111122 
COMPS,ioos:station:USF.COMPS:TAR:1,2011-01-01T00:36:00Z,28.1560,-82.7580,17.75,1111122 
COMPS,ioos:station:USF.COMPS:TAR:1,2011-01-01T00:42:00Z,28.1560,-82.7580,17.74,1111122 
COMPS,ioos:station:USF.COMPS:TAR:1,2011-01-01T00:48:00Z,28.1560,-82.7580,17.75,1111122 
COMPS,ioos:station:USF.COMPS:TAR:1,2011-01-01T00:54:00Z,28.1560,-82.7580,17.66,1111122 
COMPS,ioos:station:USF.COMPS:TAR:1,2011-01-01T01:00:00Z,28.1560,-82.7580,17.7,1111122 
COMPS,ioos:station:USF.COMPS:TAR:1,2011-01-01T01:06:00Z,28.1560,-82.7580,17.06,1111122 
COMPS,ioos:station:USF.COMPS:TAR:1,2011-01-01T01:12:00Z,28.1560,-82.7580,17.13,1111122 
COMPS,ioos:station:USF.COMPS:TAR:1,2011-01-01T01:18:00Z,28.1560,-82.7580,17.2,1111122 
COMPS,ioos:station:USF.COMPS:TAR:1,2011-01-01T01:24:00Z,28.1560,-82.7580,17.15,1111122 
COMPS,ioos:station:USF.COMPS:TAR:1,2011-01-01T01:30:00Z,28.1560,-82.7580,16.93,1111122 
COMPS,ioos:station:USF.COMPS:TAR:1,2011-01-01T01:36:00Z,28.1560,-82.7580,16.72,1111122 
COMPS,ioos:station:USF.COMPS:TAR:1,2011-01-01T01:42:00Z,28.1560,-82.7580,16.78,1111122 
COMPS,ioos:station:USF.COMPS:TAR:1,2011-01-01T01:48:00Z,28.1560,-82.7580,16.7,1111122 
COMPS,ioos:station:USF.COMPS:TAR:1,2011-01-01T01:54:00Z,28.1560,-82.7580,16.78,1111122 
COMPS,ioos:station:USF.COMPS:TAR:1,2011-01-01T02:00:00Z,28.1560,-82.7580,16.8,1111122 
COMPS,ioos:station:USF.COMPS:TAR:1,2011-01-01T02:06:00Z,28.1560,-82.7580,17.51,1111122 
COMPS,ioos:station:USF.COMPS:TAR:1,2011-01-01T02:12:00Z,28.1560,-82.7580,17.9,1111122 
COMPS,ioos:station:USF.COMPS:TAR:1,2011-01-01T02:18:00Z,28.1560,-82.7580,18.16,1111122 
COMPS,ioos:station:USF.COMPS:TAR:1,2011-01-01T02:24:00Z,28.1560,-82.7580,18.45,1111122 
COMPS,ioos:station:USF.COMPS:TAR:1,2011-01-01T02:30:00Z,28.1560,-82.7580,18.72,1111122 
COMPS,ioos:station:USF.COMPS:TAR:1,2011-01-01T02:36:00Z,28.1560,-82.7580,18.9,1111122 
COMPS,ioos:station:USF.COMPS:TAR:1,2011-01-01T02:42:00Z,28.1560,-82.7580,18.98,1111122 
COMPS,ioos:station:USF.COMPS:TAR:1,2011-01-01T02:48:00Z,28.1560,-82.7580,18.96,1111122 
COMPS,ioos:station:USF.COMPS:TAR:1,2011-01-01T02:54:00Z,28.1560,-82.7580,18.8,1111122 
COMPS,ioos:station:USF.COMPS:TAR:1,2011-01-01T03:00:00Z,28.1560,-82.7580,18.8,1111122 
COMPS,ioos:station:USF.COMPS:TAR:1,2011-01-01T03:06:00Z,28.1560,-82.7580,18.54,1111122 
COMPS,ioos:station:USF.COMPS:TAR:1,2011-01-01T03:12:00Z,28.1560,-82.7580,18.36,1111122 
COMPS,ioos:station:USF.COMPS:TAR:1,2011-01-01T03:18:00Z,28.1560,-82.7580,18.2,1111122 
COMPS,ioos:station:USF.COMPS:TAR:1,2011-01-01T03:24:00Z,28.1560,-82.7580,18.09,1111122 
COMPS,ioos:station:USF.COMPS:TAR:1,2011-01-01T03:30:00Z,28.1560,-82.7580,17.93,1111122 
COMPS,ioos:station:USF.COMPS:TAR:1,2011-01-01T03:36:00Z,28.1560,-82.7580,17.85,1111122 
COMPS,ioos:station:USF.COMPS:TAR:1,2011-01-01T03:42:00Z,28.1560,-82.7580,17.79,1111122 
COMPS,ioos:station:USF.COMPS:TAR:1,2011-01-01T03:48:00Z,28.1560,-82.7580,17.72,1111122 
COMPS,ioos:station:USF.COMPS:TAR:1,2011-01-01T03:54:00Z,28.1560,-82.7580,17.66,1111122 
COMPS,ioos:station:USF.COMPS:TAR:1,2011-01-01T04:00:00Z,28.1560,-82.7580,17.7,1111122 
COMPS,ioos:station:USF.COMPS:TAR:1,2011-01-01T04:06:00Z,28.1560,-82.7580,17.6,1111122 
COMPS,ioos:station:USF.COMPS:TAR:1,2011-01-01T04:12:00Z,28.1560,-82.7580,17.48,1111122 
COMPS,ioos:station:USF.COMPS:TAR:1,2011-01-01T04:18:00Z,28.1560,-82.7580,17.39,1111122 
COMPS,ioos:station:USF.COMPS:TAR:1,2011-01-01T04:24:00Z,28.1560,-82.7580,17.44,1111122 
COMPS,ioos:station:USF.COMPS:TAR:1,2011-01-01T04:30:00Z,28.1560,-82.7580,17.39,1111122 
COMPS,ioos:station:USF.COMPS:TAR:1,2011-01-01T04:36:00Z,28.1560,-82.7580,17.44,1111122 
COMPS,ioos:station:USF.COMPS:TAR:1,2011-01-01T04:42:00Z,28.1560,-82.7580,17.39,1111122 
COMPS,ioos:station:USF.COMPS:TAR:1,2011-01-01T04:48:00Z,28.1560,-82.7580,17.46,1111122 
COMPS,ioos:station:USF.COMPS:TAR:1,2011-01-01T04:54:00Z,28.1560,-82.7580,17.52,1111122 
COMPS,ioos:station:USF.COMPS:TAR:1,2011-01-01T05:00:00Z,28.1560,-82.7580,17.5,1111122 
COMPS,ioos:station:USF.COMPS:TAR:1,2011-01-01T05:06:00Z,28.1560,-82.7580,17.39,1111122 
COMPS,ioos:station:USF.COMPS:TAR:1,2011-01-01T05:12:00Z,28.1560,-82.7580,17.38,1111122 
COMPS,ioos:station:USF.COMPS:TAR:1,2011-01-01T05:18:00Z,28.1560,-82.7580,17.34,1111122 
COMPS,ioos:station:USF.COMPS:TAR:1,2011-01-01T05:24:00Z,28.1560,-82.7580,17.41,1111122 
COMPS,ioos:station:USF.COMPS:TAR:1,2011-01-01T05:30:00Z,28.1560,-82.7580,17.26,1111122 
COMPS,ioos:station:USF.COMPS:TAR:1,2011-01-01T05:36:00Z,28.1560,-82.7580,17.2,1111122 
COMPS,ioos:station:USF.COMPS:TAR:1,2011-01-01T05:42:00Z,28.1560,-82.7580,17.13,1111122 
COMPS,ioos:station:USF.COMPS:TAR:1,2011-01-01T05:48:00Z,28.1560,-82.7580,17.25,1111122 
COMPS,ioos:station:USF.COMPS:TAR:1,2011-01-01T05:54:00Z,28.1560,-82.7580,17.25,1111122 
COMPS,ioos:station:USF.COMPS:TAR:1,2011-01-01T06:00:00Z,28.1560,-82.7580,17.3,1111122 
COMPS,ioos:station:USF.COMPS:TAR:1,2011-01-01T06:06:00Z,28.1560,-82.7580,17.39,1111122 
COMPS,ioos:station:USF.COMPS:TAR:1,2011-01-01T06:12:00Z,28.1560,-82.7580,17.52,1111122 
COMPS,ioos:station:USF.COMPS:TAR:1,2011-01-01T06:18:00Z,28.1560,-82.7580,17.52,1111122 
COMPS,ioos:station:USF.COMPS:TAR:1,2011-01-01T06:24:00Z,28.1560,-82.7580,17.58,1111122 
COMPS,ioos:station:USF.COMPS:TAR:1,2011-01-01T06:30:00Z,28.1560,-82.7580,17.54,1111122 
COMPS,ioos:station:USF.COMPS:TAR:1,2011-01-01T06:36:00Z,28.1560,-82.7580,17.52,1111122 
COMPS,ioos:station:USF.COMPS:TAR:1,2011-01-01T06:42:00Z,28.1560,-82.7580,17.52,1111122 
COMPS,ioos:station:USF.COMPS:TAR:1,2011-01-01T06:48:00Z,28.1560,-82.7580,17.47,1111122 
COMPS,ioos:station:USF.COMPS:TAR:1,2011-01-01T06:54:00Z,28.1560,-82.7580,17.43,1111122 
COMPS,ioos:station:USF.COMPS:TAR:1,2011-01-01T07:00:00Z,28.1560,-82.7580,17.4,1111122 
COMPS,ioos:station:USF.COMPS:TAR:1,2011-01-01T07:06:00Z,28.1560,-82.7580,17.39,1111122 
COMPS,ioos:station:USF.COMPS:TAR:1,2011-01-01T07:12:00Z,28.1560,-82.7580,17.38,1111122 
COMPS,ioos:station:USF.COMPS:TAR:1,2011-01-01T07:18:00Z,28.1560,-82.7580,17.25,1111122 
COMPS,ioos:station:USF.COMPS:TAR:1,2011-01-01T07:24:00Z,28.1560,-82.7580,17.25,1111122 
COMPS,ioos:station:USF.COMPS:TAR:1,2011-01-01T07:30:00Z,28.1560,-82.7580,17.11,1111122 
COMPS,ioos:station:USF.COMPS:TAR:1,2011-01-01T07:36:00Z,28.1560,-82.7580,17.01,1111122 
COMPS,ioos:station:USF.COMPS:TAR:1,2011-01-01T07:42:00Z,28.1560,-82.7580,16.89,1111122 
COMPS,ioos:station:USF.COMPS:TAR:1,2011-01-01T07:48:00Z,28.1560,-82.7580,16.84,1111122 
COMPS,ioos:station:USF.COMPS:TAR:1,2011-01-01T07:54:00Z,28.1560,-82.7580,16.72,1111122 
COMPS,ioos:station:USF.COMPS:TAR:1,2011-01-01T08:00:00Z,28.1560,-82.7580,16.7,1111122 
COMPS,ioos:station:USF.COMPS:TAR:1,2011-01-01T08:06:00Z,28.1560,-82.7580,16.54,1111122 
COMPS,ioos:station:USF.COMPS:TAR:1,2011-01-01T08:12:00Z,28.1560,-82.7580,16.44,1111122 
COMPS,ioos:station:USF.COMPS:TAR:1,2011-01-01T08:18:00Z,28.1560,-82.7580,16.52,1111122 
COMPS,ioos:station:USF.COMPS:TAR:1,2011-01-01T08:24:00Z,28.1560,-82.7580,16.59,1111122 
COMPS,ioos:station:USF.COMPS:TAR:1,2011-01-01T08:30:00Z,28.1560,-82.7580,16.56,1111122 
COMPS,ioos:station:USF.COMPS:TAR:1,2011-01-01T08:36:00Z,28.1560,-82.7580,16.44,1111122 
COMPS,ioos:station:USF.COMPS:TAR:1,2011-01-01T08:42:00Z,28.1560,-82.7580,16.34,1111122 
COMPS,ioos:station:USF.COMPS:TAR:1,2011-01-01T08:48:00Z,28.1560,-82.7580,16.24,1111122 
COMPS,ioos:station:USF.COMPS:TAR:1,2011-01-01T08:54:00Z,28.1560,-82.7580,15.99,1111122 
COMPS,ioos:station:USF.COMPS:TAR:1,2011-01-01T09:00:00Z,28.1560,-82.7580,16.0,1111122 
COMPS,ioos:station:USF.COMPS:TAR:1,2011-01-01T09:06:00Z,28.1560,-82.7580,15.6,1111122 
COMPS,ioos:station:USF.COMPS:TAR:1,2011-01-01T09:12:00Z,28.1560,-82.7580,15.48,1111122 
COMPS,ioos:station:USF.COMPS:TAR:1,2011-01-01T09:18:00Z,28.1560,-82.7580,15.48,1111122 
COMPS,ioos:station:USF.COMPS:TAR:1,2011-01-01T09:24:00Z,28.1560,-82.7580,15.53,1111122 
COMPS,ioos:station:USF.COMPS:TAR:1,2011-01-01T09:30:00Z,28.1560,-82.7580,15.46,1111122 
COMPS,ioos:station:USF.COMPS:TAR:1,2011-01-01T09:36:00Z,28.1560,-82.7580,15.31,1111122 
COMPS,ioos:station:USF.COMPS:TAR:1,2011-01-01T09:42:00Z,28.1560,-82.7580,15.2,1111122 
COMPS,ioos:station:USF.COMPS:TAR:1,2011-01-01T09:48:00Z,28.1560,-82.7580,15.1,1111122 
COMPS,ioos:station:USF.COMPS:TAR:1,2011-01-01T09:54:00Z,28.1560,-82.7580,15.19,1111122 
COMPS,ioos:station:USF.COMPS:TAR:1,2011-01-01T10:00:00Z,28.1560,-82.7580,15.2,1111122 
COMPS,ioos:station:USF.COMPS:TAR:1,2011-01-01T10:06:00Z,28.1560,-82.7580,15.1,1111122 
COMPS,ioos:station:USF.COMPS:TAR:1,2011-01-01T10:12:00Z,28.1560,-82.7580,15.08,1111122 
COMPS,ioos:station:USF.COMPS:TAR:1,2011-01-01T10:18:00Z,28.1560,-82.7580,15.08,1111122 
COMPS,ioos:station:USF.COMPS:TAR:1,2011-01-01T10:24:00Z,28.1560,-82.7580,15.14,1111122 
COMPS,ioos:station:USF.COMPS:TAR:1,2011-01-01T10:30:00Z,28.1560,-82.7580,15.08,1111122 
COMPS,ioos:station:USF.COMPS:TAR:1,2011-01-01T10:36:00Z,28.1560,-82.7580,15.08,1111122 
COMPS,ioos:station:USF.COMPS:TAR:1,2011-01-01T10:42:00Z,28.1560,-82.7580,15.08,1111122 
COMPS,ioos:station:USF.COMPS:TAR:1,2011-01-01T10:48:00Z,28.1560,-82.7580,15.05,1111122 
COMPS,ioos:station:USF.COMPS:TAR:1,2011-01-01T10:54:00Z,28.1560,-82.7580,15.07,1111122 
COMPS,ioos:station:USF.COMPS:TAR:1,2011-01-01T11:00:00Z,28.1560,-82.7580,15.1,1111122 
COMPS,ioos:station:USF.COMPS:TAR:1,2011-01-01T11:06:00Z,28.1560,-82.7580,15.09,1111122 
COMPS,ioos:station:USF.COMPS:TAR:1,2011-01-01T11:12:00Z,28.1560,-82.7580,15.07,1111122 
COMPS,ioos:station:USF.COMPS:TAR:1,2011-01-01T11:18:00Z,28.1560,-82.7580,15.05,1111122 
COMPS,ioos:station:USF.COMPS:TAR:1,2011-01-01T11:24:00Z,28.1560,-82.7580,15.09,1111122 
COMPS,ioos:station:USF.COMPS:TAR:1,2011-01-01T11:30:00Z,28.1560,-82.7580,14.94,1111122 
COMPS,ioos:station:USF.COMPS:TAR:1,2011-01-01T11:36:00Z,28.1560,-82.7580,15.03,1111122 
COMPS,ioos:station:USF.COMPS:TAR:1,2011-01-01T11:42:00Z,28.1560,-82.7580,15.02,1111122 
COMPS,ioos:station:USF.COMPS:TAR:1,2011-01-01T11:48:00Z,28.1560,-82.7580,14.93,1111122 
COMPS,ioos:station:USF.COMPS:TAR:1,2011-01-01T11:54:00Z,28.1560,-82.7580,14.93,1111122 
COMPS,ioos:station:USF.COMPS:TAR:1,2011-01-01T12:00:00Z,28.1560,-82.7580,14.9,1111122 
COMPS,ioos:station:USF.COMPS:TAR:1,2011-01-01T12:06:00Z,28.1560,-82.7580,14.8,1111122 
COMPS,ioos:station:USF.COMPS:TAR:1,2011-01-01T12:12:00Z,28.1560,-82.7580,14.8,1111122 
COMPS,ioos:station:USF.COMPS:TAR:1,2011-01-01T12:18:00Z,28.1560,-82.7580,14.8,1111122 
COMPS,ioos:station:USF.COMPS:TAR:1,2011-01-01T12:24:00Z,28.1560,-82.7580,14.83,1111122 
COMPS,ioos:station:USF.COMPS:TAR:1,2011-01-01T12:30:00Z,28.1560,-82.7580,14.75,1111122 
COMPS,ioos:station:USF.COMPS:TAR:1,2011-01-01T12:36:00Z,28.1560,-82.7580,14.71,1111122 
COMPS,ioos:station:USF.COMPS:TAR:1,2011-01-01T12:42:00Z,28.1560,-82.7580,14.85,1111122 
COMPS,ioos:station:USF.COMPS:TAR:1,2011-01-01T12:48:00Z,28.1560,-82.7580,15.11,1111122 
COMPS,ioos:station:USF.COMPS:TAR:1,2011-01-01T12:54:00Z,28.1560,-82.7580,15.32,1111122 
COMPS,ioos:station:USF.COMPS:TAR:1,2011-01-01T13:00:00Z,28.1560,-82.7580,15.3,1111122 
COMPS,ioos:station:USF.COMPS:TAR:1,2011-01-01T14:00:00Z,28.1560,-82.7580,18.4,1111122 
COMPS,ioos:station:USF.COMPS:TAR:1,2011-01-01T14:06:00Z,28.1560,-82.7580,18.41,1111122 
COMPS,ioos:station:USF.COMPS:TAR:1,2011-01-01T14:12:00Z,28.1560,-82.7580,18.54,1111122 
COMPS,ioos:station:USF.COMPS:TAR:1,2011-01-01T14:18:00Z,28.1560,-82.7580,18.74,1111122 
COMPS,ioos:station:USF.COMPS:TAR:1,2011-01-01T14:24:00Z,28.1560,-82.7580,19.08,1111122 
COMPS,ioos:station:USF.COMPS:TAR:1,2011-01-01T14:30:00Z,28.1560,-82.7580,19.13,1111122 
COMPS,ioos:station:USF.COMPS:TAR:1,2011-01-01T14:36:00Z,28.1560,-82.7580,19.11,1111122 
COMPS,ioos:station:USF.COMPS:TAR:1,2011-01-01T14:42:00Z,28.1560,-82.7580,19.18,1111122 
COMPS,ioos:station:USF.COMPS:TAR:1,2011-01-01T14:48:00Z,28.1560,-82.7580,19.4,1111122 
COMPS,ioos:station:USF.COMPS:TAR:1,2011-01-01T14:54:00Z,28.1560,-82.7580,19.47,1111122 
COMPS,ioos:station:USF.COMPS:TAR:1,2011-01-01T15:00:00Z,28.1560,-82.7580,19.5,1111122 
COMPS,ioos:station:USF.COMPS:TAR:1,2011-01-01T15:06:00Z,28.1560,-82.7580,19.4,1111122 
COMPS,ioos:station:USF.COMPS:TAR:1,2011-01-01T15:12:00Z,28.1560,-82.7580,19.53,1111122 
COMPS,ioos:station:USF.COMPS:TAR:1,2011-01-01T15:18:00Z,28.1560,-82.7580,19.68,1111122 
COMPS,ioos:station:USF.COMPS:TAR:1,2011-01-01T15:24:00Z,28.1560,-82.7580,20.0,1111122 
COMPS,ioos:station:USF.COMPS:TAR:1,2011-01-01T15:30:00Z,28.1560,-82.7580,20.3,1111122 
COMPS,ioos:station:USF.COMPS:TAR:1,2011-01-01T15:36:00Z,28.1560,-82.7580,20.57,1111122 
COMPS,ioos:station:USF.COMPS:TAR:1,2011-01-01T15:42:00Z,28.1560,-82.7580,20.76,1111122 
COMPS,ioos:station:USF.COMPS:TAR:1,2011-01-01T15:48:00Z,28.1560,-82.7580,20.92,1111122 
COMPS,ioos:station:USF.COMPS:TAR:1,2011-01-01T15:54:00Z,28.1560,-82.7580,21.27,1111122 
COMPS,ioos:station:USF.COMPS:TAR:1,2011-01-01T16:00:00Z,28.1560,-82.7580,21.3,1111122 
COMPS,ioos:station:USF.COMPS:TAR:1,2011-01-01T16:06:00Z,28.1560,-82.7580,21.62,1111122 
COMPS,ioos:station:USF.COMPS:TAR:1,2011-01-01T16:12:00Z,28.1560,-82.7580,21.84,1111122 
COMPS,ioos:station:USF.COMPS:TAR:1,2011-01-01T16:18:00Z,28.1560,-82.7580,22.21,1111122 
COMPS,ioos:station:USF.COMPS:TAR:1,2011-01-01T16:24:00Z,28.1560,-82.7580,22.48,1111122 
COMPS,ioos:station:USF.COMPS:TAR:1,2011-01-01T16:30:00Z,28.1560,-82.7580,22.37,1111122 
COMPS,ioos:station:USF.COMPS:TAR:1,2011-01-01T16:36:00Z,28.1560,-82.7580,22.51,1111122 
COMPS,ioos:station:USF.COMPS:TAR:1,2011-01-01T16:42:00Z,28.1560,-82.7580,22.82,1111122 
COMPS,ioos:station:USF.COMPS:TAR:1,2011-01-01T16:48:00Z,28.1560,-82.7580,22.97,1111122 
COMPS,ioos:station:USF.COMPS:TAR:1,2011-01-01T16:54:00Z,28.1560,-82.7580,22.93,1111122 
COMPS,ioos:station:USF.COMPS:TAR:1,2011-01-01T17:00:00Z,28.1560,-82.7580,22.9,1111122 
COMPS,ioos:station:USF.COMPS:TAR:1,2011-01-01T17:06:00Z,28.1560,-82.7580,23.24,1111122 
COMPS,ioos:station:USF.COMPS:TAR:1,2011-01-01T17:12:00Z,28.1560,-82.7580,23.2,1111122 
COMPS,ioos:station:USF.COMPS:TAR:1,2011-01-01T17:18:00Z,28.1560,-82.7580,23.58,1111122 
COMPS,ioos:station:USF.COMPS:TAR:1,2011-01-01T17:24:00Z,28.1560,-82.7580,23.82,1111122 
COMPS,ioos:station:USF.COMPS:TAR:1,2011-01-01T17:30:00Z,28.1560,-82.7580,24.01,1111122 
COMPS,ioos:station:USF.COMPS:TAR:1,2011-01-01T17:36:00Z,28.1560,-82.7580,23.88,1111122 
COMPS,ioos:station:USF.COMPS:TAR:1,2011-01-01T17:42:00Z,28.1560,-82.7580,24.05,1111122 
COMPS,ioos:station:USF.COMPS:TAR:1,2011-01-01T17:48:00Z,28.1560,-82.7580,24.22,1111122 
COMPS,ioos:station:USF.COMPS:TAR:1,2011-01-01T17:54:00Z,28.1560,-82.7580,24.47,1111122 
COMPS,ioos:station:USF.COMPS:TAR:1,2011-01-01T18:00:00Z,28.1560,-82.7580,24.5,1111122 
COMPS,ioos:station:USF.COMPS:TAR:1,2011-01-01T18:06:00Z,28.1560,-82.7580,24.41,1111122 
COMPS,ioos:station:USF.COMPS:TAR:1,2011-01-01T18:12:00Z,28.1560,-82.7580,24.4,1111122 
COMPS,ioos:station:USF.COMPS:TAR:1,2011-01-01T18:18:00Z,28.1560,-82.7580,24.09,1111122 
COMPS,ioos:station:USF.COMPS:TAR:1,2011-01-01T18:24:00Z,28.1560,-82.7580,24.02,1111122 
COMPS,ioos:station:USF.COMPS:TAR:1,2011-01-01T18:30:00Z,28.1560,-82.7580,24.09,1111122 
COMPS,ioos:station:USF.COMPS:TAR:1,2011-01-01T18:36:00Z,28.1560,-82.7580,24.15,1111122 
COMPS,ioos:station:USF.COMPS:TAR:1,2011-01-01T18:42:00Z,28.1560,-82.7580,24.37,1111122 
COMPS,ioos:station:USF.COMPS:TAR:1,2011-01-01T18:48:00Z,28.1560,-82.7580,24.37,1111122 
COMPS,ioos:station:USF.COMPS:TAR:1,2011-01-01T18:54:00Z,28.1560,-82.7580,24.81,1111122 
COMPS,ioos:station:USF.COMPS:TAR:1,2011-01-01T19:00:00Z,28.1560,-82.7580,24.8,1111122 
COMPS,ioos:station:USF.COMPS:TAR:1,2011-01-01T19:06:00Z,28.1560,-82.7580,24.98,1111122 
COMPS,ioos:station:USF.COMPS:TAR:1,2011-01-01T19:12:00Z,28.1560,-82.7580,24.57,1111122 
COMPS,ioos:station:USF.COMPS:TAR:1,2011-01-01T19:18:00Z,28.1560,-82.7580,24.21,1111122 
COMPS,ioos:station:USF.COMPS:TAR:1,2011-01-01T19:24:00Z,28.1560,-82.7580,24.46,1111122 
COMPS,ioos:station:USF.COMPS:TAR:1,2011-01-01T19:30:00Z,28.1560,-82.7580,24.34,1111122 
COMPS,ioos:station:USF.COMPS:TAR:1,2011-01-01T19:36:00Z,28.1560,-82.7580,24.36,1111122 
COMPS,ioos:station:USF.COMPS:TAR:1,2011-01-01T19:42:00Z,28.1560,-82.7580,24.23,1111122 
COMPS,ioos:station:USF.COMPS:TAR:1,2011-01-01T19:48:00Z,28.1560,-82.7580,24.29,1111122 
COMPS,ioos:station:USF.COMPS:TAR:1,2011-01-01T19:54:00Z,28.1560,-82.7580,24.29,1111122 
COMPS,ioos:station:USF.COMPS:TAR:1,2011-01-01T20:00:00Z,28.1560,-82.7580,24.3,1111122 
COMPS,ioos:station:USF.COMPS:TAR:1,2011-01-01T20:06:00Z,28.1560,-82.7580,24.39,1111122 
COMPS,ioos:station:USF.COMPS:TAR:1,2011-01-01T20:12:00Z,28.1560,-82.7580,24.66,1111122 
COMPS,ioos:station:USF.COMPS:TAR:1,2011-01-01T20:18:00Z,28.1560,-82.7580,25.05,1111122 
COMPS,ioos:station:USF.COMPS:TAR:1,2011-01-01T20:24:00Z,28.1560,-82.7580,25.17,1111122 
COMPS,ioos:station:USF.COMPS:TAR:1,2011-01-01T20:30:00Z,28.1560,-82.7580,25.16,1111122 
COMPS,ioos:station:USF.COMPS:TAR:1,2011-01-01T20:36:00Z,28.1560,-82.7580,25.1,1111122 
COMPS,ioos:station:USF.COMPS:TAR:1,2011-01-01T20:42:00Z,28.1560,-82.7580,24.91,1111122 
COMPS,ioos:station:USF.COMPS:TAR:1,2011-01-01T20:48:00Z,28.1560,-82.7580,24.95,1111122 
COMPS,ioos:station:USF.COMPS:TAR:1,2011-01-01T20:54:00Z,28.1560,-82.7580,24.78,1111122 
COMPS,ioos:station:USF.COMPS:TAR:1,2011-01-01T21:00:00Z,28.1560,-82.7580,24.8,1111122 
COMPS,ioos:station:USF.COMPS:TAR:1,2011-01-01T21:06:00Z,28.1560,-82.7580,24.77,1111122 
COMPS,ioos:station:USF.COMPS:TAR:1,2011-01-01T21:12:00Z,28.1560,-82.7580,24.74,1111122 
COMPS,ioos:station:USF.COMPS:TAR:1,2011-01-01T21:18:00Z,28.1560,-82.7580,24.84,1111122 
COMPS,ioos:station:USF.COMPS:TAR:1,2011-01-01T21:24:00Z,28.1560,-82.7580,24.84,1111122 
COMPS,ioos:station:USF.COMPS:TAR:1,2011-01-01T21:30:00Z,28.1560,-82.7580,24.69,1111122 
COMPS,ioos:station:USF.COMPS:TAR:1,2011-01-01T21:36:00Z,28.1560,-82.7580,24.65,1111122 
COMPS,ioos:station:USF.COMPS:TAR:1,2011-01-01T21:42:00Z,28.1560,-82.7580,24.54,1111122 
COMPS,ioos:station:USF.COMPS:TAR:1,2011-01-01T21:48:00Z,28.1560,-82.7580,24.47,1111122 
COMPS,ioos:station:USF.COMPS:TAR:1,2011-01-01T21:54:00Z,28.1560,-82.7580,24.44,1111122 
COMPS,ioos:station:USF.COMPS:TAR:1,2011-01-01T22:00:00Z,28.1560,-82.7580,24.5,1111122 
COMPS,ioos:station:USF.COMPS:TAR:1,2011-01-01T22:06:00Z,28.1560,-82.7580,24.35,1111122 
COMPS,ioos:station:USF.COMPS:TAR:1,2011-01-01T22:12:00Z,28.1560,-82.7580,24.22,1111122 
COMPS,ioos:station:USF.COMPS:TAR:1,2011-01-01T22:18:00Z,28.1560,-82.7580,24.03,1111122 
COMPS,ioos:station:USF.COMPS:TAR:1,2011-01-01T22:24:00Z,28.1560,-82.7580,23.96,1111122 
COMPS,ioos:station:USF.COMPS:TAR:1,2011-01-01T22:30:00Z,28.1560,-82.7580,23.66,1111122 
COMPS,ioos:station:USF.COMPS:TAR:1,2011-01-01T22:36:00Z,28.1560,-82.7580,23.46,1111122 
COMPS,ioos:station:USF.COMPS:TAR:1,2011-01-01T22:42:00Z,28.1560,-82.7580,23.31,1111122 
COMPS,ioos:station:USF.COMPS:TAR:1,2011-01-01T22:48:00Z,28.1560,-82.7580,23.15,1111122 
COMPS,ioos:station:USF.COMPS:TAR:1,2011-01-01T22:54:00Z,28.1560,-82.7580,22.97,1111122 
COMPS,ioos:station:USF.COMPS:TAR:1,2011-01-01T23:00:00Z,28.1560,-82.7580,23.0,1111122 
COMPS,ioos:station:USF.COMPS:TAR:1,2011-01-01T23:06:00Z,28.1560,-82.7580,22.68,1111122 
COMPS,ioos:station:USF.COMPS:TAR:1,2011-01-01T23:12:00Z,28.1560,-82.7580,22.47,1111122 
COMPS,ioos:station:USF.COMPS:TAR:1,2011-01-01T23:18:00Z,28.1560,-82.7580,22.28,1111122 
COMPS,ioos:station:USF.COMPS:TAR:1,2011-01-01T23:24:00Z,28.1560,-82.7580,22.22,1111122 
COMPS,ioos:station:USF.COMPS:TAR:1,2011-01-01T23:30:00Z,28.1560,-82.7580,21.98,1111122 
COMPS,ioos:station:USF.COMPS:TAR:1,2011-01-01T23:36:00Z,28.1560,-82.7580,21.69,1111122 
COMPS,ioos:station:USF.COMPS:TAR:1,2011-01-01T23:42:00Z,28.1560,-82.7580,21.46,1111122 
COMPS,ioos:station:USF.COMPS:TAR:1,2011-01-01T23:48:00Z,28.1560,-82.7580,21.15,1111122 
COMPS,ioos:station:USF.COMPS:TAR:1,2011-01-01T23:54:00Z,28.1560,-82.7580,20.82,1111122 
COMPS,ioos:station:USF.COMPS:TAR:1,2011-01-02T00:00:00Z,28.1560,-82.7580,20.8,1111122 
COMPS,ioos:station:USF.COMPS:TAR:1,2011-01-02T00:06:00Z,28.1560,-82.7580,20.36,1111122 
COMPS,ioos:station:USF.COMPS:TAR:1,2011-01-02T00:12:00Z,28.1560,-82.7580,20.29,1111122 
COMPS,ioos:station:USF.COMPS:TAR:1,2011-01-02T00:18:00Z,28.1560,-82.7580,20.06,1111122 
COMPS,ioos:station:USF.COMPS:TAR:1,2011-01-02T00:24:00Z,28.1560,-82.7580,19.87,1111122 
COMPS,ioos:station:USF.COMPS:TAR:1,2011-01-02T00:30:00Z,28.1560,-82.7580,19.63,1111122 
COMPS,ioos:station:USF.COMPS:TAR:1,2011-01-02T00:36:00Z,28.1560,-82.7580,19.45,1111122 
COMPS,ioos:station:USF.COMPS:TAR:1,2011-01-02T00:42:00Z,28.1560,-82.7580,19.27,1111122 
COMPS,ioos:station:USF.COMPS:TAR:1,2011-01-02T00:48:00Z,28.1560,-82.7580,19.07,1111122 
COMPS,ioos:station:USF.COMPS:TAR:1,2011-01-02T00:54:00Z,28.1560,-82.7580,18.97,1111122 
COMPS,ioos:station:USF.COMPS:TAR:1,2011-01-02T01:00:00Z,28.1560,-82.7580,19.0,1111122 
COMPS,ioos:station:USF.COMPS:TAR:1,2011-01-02T01:06:00Z,28.1560,-82.7580,18.79,1111122 
COMPS,ioos:station:USF.COMPS:TAR:1,2011-01-02T01:12:00Z,28.1560,-82.7580,18.78,1111122 
COMPS,ioos:station:USF.COMPS:TAR:1,2011-01-02T01:18:00Z,28.1560,-82.7580,18.72,1111122 
COMPS,ioos:station:USF.COMPS:TAR:1,2011-01-02T01:24:00Z,28.1560,-82.7580,18.79,1111122 
COMPS,ioos:station:USF.COMPS:TAR:1,2011-01-02T01:30:00Z,28.1560,-82.7580,18.7,1111122 
COMPS,ioos:station:USF.COMPS:TAR:1,2011-01-02T01:36:00Z,28.1560,-82.7580,18.59,1111122 
COMPS,ioos:station:USF.COMPS:TAR:1,2011-01-02T01:42:00Z,28.1560,-82.7580,18.56,1111122 
COMPS,ioos:station:USF.COMPS:TAR:1,2011-01-02T01:48:00Z,28.1560,-82.7580,18.53,1111122 
COMPS,ioos:station:USF.COMPS:TAR:1,2011-01-02T01:54:00Z,28.1560,-82.7580,18.43,1111122 
COMPS,ioos:station:USF.COMPS:TAR:1,2011-01-02T02:00:00Z,28.1560,-82.7580,18.4,1111122 
COMPS,ioos:station:USF.COMPS:TAR:1,2011-01-02T02:06:00Z,28.1560,-82.7580,18.61,1111122 
COMPS,ioos:station:USF.COMPS:TAR:1,2011-01-02T02:12:00Z,28.1560,-82.7580,18.7,1111122 
COMPS,ioos:station:USF.COMPS:TAR:1,2011-01-02T02:18:00Z,28.1560,-82.7580,18.63,1111122 
COMPS,ioos:station:USF.COMPS:TAR:1,2011-01-02T02:24:00Z,28.1560,-82.7580,18.51,1111122 
COMPS,ioos:station:USF.COMPS:TAR:1,2011-01-02T02:30:00Z,28.1560,-82.7580,18.43,1111122 
COMPS,ioos:station:USF.COMPS:TAR:1,2011-01-02T02:36:00Z,28.1560,-82.7580,18.4,1111122 
COMPS,ioos:station:USF.COMPS:TAR:1,2011-01-02T02:42:00Z,28.1560,-82.7580,18.23,1111122 
COMPS,ioos:station:USF.COMPS:TAR:1,2011-01-02T02:48:00Z,28.1560,-82.7580,18.09,1111122 
COMPS,ioos:station:USF.COMPS:TAR:1,2011-01-02T02:54:00Z,28.1560,-82.7580,18.12,1111122 
COMPS,ioos:station:USF.COMPS:TAR:1,2011-01-02T03:00:00Z,28.1560,-82.7580,18.1,1111122 
COMPS,ioos:station:USF.COMPS:TAR:1,2011-01-02T03:06:00Z,28.1560,-82.7580,18.3,1111122 
COMPS,ioos:station:USF.COMPS:TAR:1,2011-01-02T03:12:00Z,28.1560,-82.7580,18.46,1111122 
COMPS,ioos:station:USF.COMPS:TAR:1,2011-01-02T03:18:00Z,28.1560,-82.7580,18.69,1111122 
COMPS,ioos:station:USF.COMPS:TAR:1,2011-01-02T03:24:00Z,28.1560,-82.7580,18.82,1111122 
COMPS,ioos:station:USF.COMPS:TAR:1,2011-01-02T03:30:00Z,28.1560,-82.7580,18.85,1111122 
COMPS,ioos:station:USF.COMPS:TAR:1,2011-01-02T03:36:00Z,28.1560,-82.7580,18.85,1111122 
COMPS,ioos:station:USF.COMPS:TAR:1,2011-01-02T03:42:00Z,28.1560,-82.7580,18.73,1111122 
COMPS,ioos:station:USF.COMPS:TAR:1,2011-01-02T03:48:00Z,28.1560,-82.7580,18.51,1111122 
COMPS,ioos:station:USF.COMPS:TAR:1,2011-01-02T03:54:00Z,28.1560,-82.7580,18.35,1111122 
COMPS,ioos:station:USF.COMPS:TAR:1,2011-01-02T04:00:00Z,28.1560,-82.7580,18.4,1111122 